Stündliche Wetter Czystochleb

Heute, 29 Oktober, Donnerstag

Zeit Temperatur Niederschläge Wind Luftdruck Luftfeuchtigkeit
00:00 +9°C° 0 mm 3 m/S 750 mmHg 86%
01:00 +9°C° 0 mm 3 m/S 750 mmHg 89%
02:00 +8°C° 0 mm 3 m/S 750 mmHg 90%
03:00 +8°C° 0 mm 3 m/S 750 mmHg 91%
04:00 +8°C° 0 mm 3 m/S 749 mmHg 92%
05:00 +7°C° 0 mm 3 m/S 749 mmHg 92%
06:00 +7°C° 0 mm 3 m/S 749 mmHg 92%
07:00 +7°C° 0 mm 3 m/S 749 mmHg 92%
08:00 +8°C° 0 mm 4 m/S 749 mmHg 86%
09:00 +10°C° 0 mm 4 m/S 749 mmHg 80%
10:00 +10°C° 0 mm 5 m/S 749 mmHg 74%
11:00 +10°C° 0.1 mm 5 m/S 749 mmHg 76%
12:00 +10°C° 0.1 mm 5 m/S 749 mmHg 78%
13:00 +9°C° 0.1 mm 5 m/S 748 mmHg 81%
14:00 +9°C° 0.3 mm 5 m/S 749 mmHg 80%
15:00 +9°C° 0.3 mm 5 m/S 749 mmHg 80%
16:00 +10°C° 0.3 mm 4 m/S 749 mmHg 80%
17:00 +10°C° 0.1 mm 4 m/S 749 mmHg 80%
18:00 +8°C° 0.1 mm 4 m/S 750 mmHg 81%
19:00 +7°C° 0.1 mm 4 m/S 750 mmHg 81%
20:00 +7°C° 0 mm 5 m/S 750 mmHg 81%
21:00 +7°C° 0 mm 5 m/S 751 mmHg 81%
22:00 +7°C° 0 mm 5 m/S 751 mmHg 81%
23:00 +7°C° 0.7 mm 5 m/S 751 mmHg 82%

Morgen, 30 Oktober, Freitag

Zeit Temperatur Niederschläge Wind Luftdruck Luftfeuchtigkeit
00:00 +7°C° 0.7 mm 6 m/S 751 mmHg 82%
01:00 +6°C° 0.7 mm 7 m/S 751 mmHg 83%
02:00 +6°C° 0 mm 7 m/S 751 mmHg 84%
03:00 +7°C° 0 mm 6 m/S 751 mmHg 85%
04:00 +5°C° 0 mm 6 m/S 751 mmHg 86%
05:00 +7°C° 0 mm 6 m/S 752 mmHg 84%
06:00 +7°C° 0 mm 5 m/S 752 mmHg 83%
07:00 +7°C° 0 mm 5 m/S 752 mmHg 82%
08:00 +7°C° 0 mm 5 m/S 753 mmHg 81%
09:00 +8°C° 0 mm 5 m/S 753 mmHg 80%
10:00 +8°C° 0 mm 5 m/S 753 mmHg 79%
11:00 +8°C° 0 mm 4 m/S 753 mmHg 76%
12:00 +8°C° 0 mm 4 m/S 752 mmHg 74%
13:00 +10°C° 0 mm 4 m/S 752 mmHg 72%
14:00 +9°C° 0 mm 3 m/S 752 mmHg 75%
15:00 +9°C° 0 mm 2 m/S 752 mmHg 78%
16:00 +8°C° 0 mm 2 m/S 752 mmHg 82%
17:00 +9°C° 0.1 mm 1 m/S 752 mmHg 84%
18:00 +9°C° 0.1 mm 1 m/S 752 mmHg 87%
19:00 +9°C° 0.1 mm 1 m/S 752 mmHg 90%
20:00 +8°C° 0.1 mm 0 m/S 753 mmHg 90%
21:00 +8°C° 0.1 mm 0 m/S 753 mmHg 91%
22:00 +8°C° 0.1 mm 0 m/S 753 mmHg 92%
23:00 +7°C° 0 mm 0 m/S 753 mmHg 92%

übermorgen, 31 Oktober, Samstag

Zeit Temperatur Niederschläge Wind Luftdruck Luftfeuchtigkeit
00:00 +8°C° 0 mm 1 m/S 754 mmHg 92%
01:00 +7°C° 0 mm 1 m/S 754 mmHg 92%
02:00 +7°C° 0 mm 1 m/S 754 mmHg 92%
03:00 +7°C° 0 mm 1 m/S 755 mmHg 91%
04:00 +6°C° 0 mm 1 m/S 755 mmHg 90%
05:00 +6°C° 0 mm 1 m/S 756 mmHg 91%
06:00 +6°C° 0 mm 1 m/S 756 mmHg 91%
07:00 +6°C° 0 mm 1 m/S 756 mmHg 91%
08:00 +7°C° 0 mm 1 m/S 757 mmHg 86%
09:00 +9°C° 0 mm 1 m/S 757 mmHg 81%
10:00 +10°C° 0 mm 1 m/S 758 mmHg 77%
11:00 +11°C° 0 mm 1 m/S 758 mmHg 74%
12:00 +12°C° 0 mm 1 m/S 758 mmHg 71%
13:00 +13°C° 0 mm 1 m/S 758 mmHg 69%
14:00 +12°C° 0 mm 1 m/S 758 mmHg 73%
15:00 +11°C° 0 mm 1 m/S 758 mmHg 77%
16:00 +11°C° 0 mm 1 m/S 758 mmHg 80%
17:00 +10°C° 0 mm 1 m/S 758 mmHg 83%
18:00 +10°C° 0 mm 1 m/S 759 mmHg 85%
19:00 +9°C° 0 mm 1 m/S 759 mmHg 88%
20:00 +8°C° 0 mm 2 m/S 759 mmHg 89%
21:00 +8°C° 0 mm 2 m/S 759 mmHg 90%
22:00 +7°C° 0 mm 2 m/S 759 mmHg 91%
23:00 +7°C° 0 mm 2 m/S 759 mmHg 92%

1 November, Sonntag

Zeit Temperatur Niederschläge Wind Luftdruck Luftfeuchtigkeit
00:00 +5°C° 0 mm 3 m/S 759 mmHg 92%
01:00 +5°C° 0 mm 3 m/S 759 mmHg 93%
02:00 +5°C° 0 mm 3 m/S 759 mmHg 93%
03:00 +5°C° 0 mm 3 m/S 759 mmHg 93%
04:00 +4°C° 0 mm 3 m/S 759 mmHg 93%
05:00 +4°C° 0 mm 3 m/S 759 mmHg 93%
06:00 +4°C° 0 mm 4 m/S 759 mmHg 92%
07:00 +4°C° 0 mm 4 m/S 759 mmHg 92%
08:00 +5°C° 0 mm 4 m/S 758 mmHg 84%
09:00 +7°C° 0 mm 5 m/S 758 mmHg 77%
10:00 +8°C° 0 mm 5 m/S 758 mmHg 70%
11:00 +9°C° 0 mm 6 m/S 758 mmHg 66%
12:00 +9°C° 0 mm 6 m/S 757 mmHg 63%
13:00 +10°C° 0 mm 6 m/S 757 mmHg 59%
14:00 +9°C° 0 mm 6 m/S 757 mmHg 63%
15:00 +9°C° 0 mm 5 m/S 756 mmHg 66%
16:00 +8°C° 0 mm 5 m/S 756 mmHg 69%
17:00 +7°C° 0 mm 5 m/S 756 mmHg 71%
18:00 +7°C° 0 mm 5 m/S 756 mmHg 73%
19:00 +7°C° 0 mm 6 m/S 756 mmHg 75%
20:00 +5°C° 0 mm 6 m/S 755 mmHg 76%
21:00 +6°C° 0 mm 5 m/S 755 mmHg 78%
22:00 +6°C° 0 mm 5 m/S 755 mmHg 80%
23:00 +6°C° 0 mm 5 m/S 755 mmHg 82%

2 November, Montag

Zeit Temperatur Niederschläge Wind Luftdruck Luftfeuchtigkeit
00:00 +6°C° 0 mm 5 m/S 754 mmHg 85%
01:00 +5°C° 0 mm 5 m/S 754 mmHg 87%
02:00 +5°C° 0 mm 5 m/S 754 mmHg 88%
03:00 +5°C° 0 mm 5 m/S 754 mmHg 89%
04:00 +5°C° 0 mm 5 m/S 754 mmHg 91%
05:00 +5°C° 0 mm 5 m/S 754 mmHg 91%
06:00 +5°C° 0 mm 5 m/S 754 mmHg 91%
07:00 +5°C° 0 mm 5 m/S 754 mmHg 91%
08:00 +6°C° 0 mm 5 m/S 754 mmHg 86%
09:00 +8°C° 0 mm 5 m/S 753 mmHg 82%
10:00 +9°C° 0 mm 5 m/S 753 mmHg 78%
11:00 +9°C° 0 mm 5 m/S 753 mmHg 75%
12:00 +10°C° 0 mm 6 m/S 753 mmHg 72%
13:00 +11°C° 0 mm 6 m/S 753 mmHg 69%
14:00 +11°C° 0 mm 6 m/S 753 mmHg 70%
15:00 +12°C° 0 mm 5 m/S 753 mmHg 71%
16:00 +12°C° 0 mm 5 m/S 753 mmHg 71%
17:00 +10°C° 0 mm 5 m/S 753 mmHg 72%
18:00 +10°C° 0 mm 5 m/S 753 mmHg 73%
19:00 +10°C° 0 mm 5 m/S 753 mmHg 73%
20:00 +10°C° 0 mm 5 m/S 753 mmHg 73%
21:00 +9°C° 0 mm 5 m/S 753 mmHg 73%
22:00 +9°C° 0 mm 5 m/S 753 mmHg 73%
23:00 +9°C° 0 mm 5 m/S 754 mmHg 72%

3 November, Dienstag

Zeit Temperatur Niederschläge Wind Luftdruck Luftfeuchtigkeit
00:00 +9°C° 0 mm 5 m/S 754 mmHg 72%
01:00 +8°C° 0 mm 4 m/S 754 mmHg 72%
02:00 +8°C° 0 mm 4 m/S 754 mmHg 71%
03:00 +8°C° 0 mm 5 m/S 754 mmHg 71%
04:00 +8°C° 0 mm 5 m/S 754 mmHg 71%
05:00 +8°C° 0 mm 4 m/S 754 mmHg 73%
06:00 +8°C° 0 mm 4 m/S 754 mmHg 75%
07:00 +8°C° 0 mm 4 m/S 755 mmHg 77%
08:00 +8°C° 0.1 mm 5 m/S 755 mmHg 77%
09:00 +8°C° 0.1 mm 5 m/S 755 mmHg 77%
10:00 +8°C° 0.1 mm 5 m/S 755 mmHg 77%
11:00 +8°C° 0.3 mm 5 m/S 755 mmHg 78%
12:00 +8°C° 0.3 mm 4 m/S 756 mmHg 79%
13:00 +8°C° 0.3 mm 4 m/S 756 mmHg 80%
14:00 +9°C° 0.4 mm 3 m/S 756 mmHg 81%
15:00 +9°C° 0.4 mm 2 m/S 756 mmHg 82%
16:00 +9°C° 0.4 mm 2 m/S 756 mmHg 83%
17:00 +9°C° 0.2 mm 2 m/S 756 mmHg 83%
18:00 +9°C° 0.2 mm 2 m/S 757 mmHg 82%
19:00 +9°C° 0.2 mm 2 m/S 757 mmHg 82%
20:00 +9°C° 0 mm 3 m/S 757 mmHg 83%
21:00 +9°C° 0 mm 3 m/S 758 mmHg 85%
22:00 +8°C° 0 mm 3 m/S 758 mmHg 86%
23:00 +8°C° 0 mm 3 m/S 758 mmHg 88%
Mehr zeigen

Wir brauchen deine Erlaubnis

Meteoprog und unser Service Anbieter werden persönliche Daten aufbewahren, so wie Cookies, Geräte Bezeichnung oder ähnliche Technologien von deinem Gerät und Prozess, so wie Persönliche Daten Inhalte und Werbungen, genauso wie social Media und den Verkehr zu analysieren.

  • Aufbewahrung und/oder Zugang zu deiner Geräte Informationen.

    Cookies, Geräte Bezeichnung oder andere Informationen, können aufbewahrt oder Zugang zu deinem Gerät erhalten, für den Grund, der oben angegeben wird.

  • Personalisierte Werbung und Inhalte, Messungen, Einblick in das Publikum und Produkt Entwicklung.

    Werbungen und Inhalte können personalisiert werden, basierend auf ein Profil. Mehr Daten können besser personalisierte Werbungen und Inhalte hinzufügen. Werbung und Inhalte können gezeigt und gemessen werden. Einblicke über das Publikum, welche die Werbung gesehen haben und den Inhalt, können abgeleitet werden. So wie Daten können genutzt werden, um es zu verbessern oder die Benutzer Erfahrung zu verbessern das System und die Software.

Wenn du “Ich stimme zu” klickst, erlaubst du uns, die Cookies zu benutzen die Geräte Bezeichnung, den Web oder ähnliche Technologien zu benutzen. Deine Settings, können in deinem Gerät bei deinem Browser geändert werden.

Für den bestimmten Zweck, berechtigten Interessen beruhen darauf, mehr als auf den Inhalt. Du kannst mehr darüber in unseren Privaten und Cookie Politik lesen.